Vorticity
13 6 3 3 3 4 4 5 6 5 4 4 5 6 5 5 5 5 5 6 8 5 3 -7 6 5 7 7 6 8 11 2 4 9 5 13 9 7 4 6 9 11 9
10 8 4 4 3 4 4 4 4 5 5 4 4 4 5 6 6 6 6 7 7 4 -5 4 7 8 8 5 5 8 10 8 1 -3 3 9 10 5 3 5 8 5 5
3 8 5 3 3 4 4 4 4 4 4 6 5 4 5 6 7 7 7 7 5 3 0 9 12 5 6 5 5 8 8 10 11 6 -3 13 10 8 2 -0 -6 4 5
15 6 6 3 3 3 4 4 4 4 4 4 4 5 5 6 6 5 6 6 4 -2 5 5 13 6 4 5 5 6 8 8 9 13 5 4 2 -1 4 9 7 -1 1
8 12 7 5 5 4 4 4 4 4 4 4 4 4 4 5 6 5 4 3 5 5 1 6 4 2 -0 3 6 5 8 8 7 8 14 5 2 4 5 7 8 13 14
2 17 8 9 5 3 4 4 5 5 4 4 4 5 4 5 7 3 4 5 3 4 4 10 -4 0 0 -0 7 6 5 8 7 8 17 9 -1 -0 1 -0 1 0 -1
6 6 9 6 8 7 6 5 5 5 5 5 4 4 5 5 4 5 3 7 3 3 3 8 -1 4 2 2 8 6 5 5 7 9 12 13 8 0 -4 0 1 -2 3
1 2 2 4 4 3 5 3 3 4 6 7 6 5 4 4 5 5 4 4 9 10 6 1 4 -2 -1 8 8 7 6 4 6 8 11 10 9 10 5 -2 8 2 3
2 2 2 1 2 3 3 3 2 3 4 6 8 7 5 4 4 4 4 4 5 5 7 5 1 4 6 7 7 7 6 5 5 7 10 8 8 8 8 7 8 7 5
11 10 6 4 3 3 2 2 3 4 1 2 2 6 7 5 4 4 4 5 3 4 5 2 3 -1 5 6 6 7 6 6 5 5 10 8 8 10 20 6 6 7 8
8 8 9 9 9 9 10 12 13 12 10 5 2 2 2 7 5 5 4 3 4 3 4 6 5 3 1 6 6 6 7 6 6 6 9 7 9 6 -4 6 13 9 9
8 9 9 9 9 9 8 7 7 8 9 10 12 12 7 3 3 8 5 4 3 3 3 4 3 5 3 3 6 6 6 6 6 6 9 8 11 7 -2 -0 10 10 10
13 13 14 14 13 11 9 8 7 7 7 8 8 8 12 12 2 1 2 10 8 4 3 3 1 4 4 1 2 6 6 6 6 6 13 9 10 -0 3 5 3 5 7
9 10 9 10 10 11 13 16 18 16 13 9 7 8 8 8 12 11 0 2 3 12 13 5 -0 2 3 4 5 2 6 7 6 6 8 10 8 1 3 2 2 -1 4
6 6 7 9 9 9 9 9 9 10 10 12 14 15 12 7 8 8 12 11 -2 -5 3 11 13 11 5 3 5 5 4 -0 2 6 7 15 8 3 3 5 -5 -6 5
8 8 8 7 7 7 7 6 6 6 7 8 8 9 10 15 17 10 8 8 10 12 -2 -5 -0 3 -1 14 5 3 -4 -0 5 4 3 19 15 9 2 -1 3 8 5
7 6 5 5 3 3 4 5 5 6 6 5 4 5 6 6 8 13 19 10 7 8 10 10 7 -11 19 25 34 6 3 -10 15 4 2 15 20 4 8 1 -2 5 11
6 5 4 4 6 6 5 4 4 4 5 7 6 4 4 4 5 5 8 13 15 15 10 10 7 11 -8 19 32 -3 -22 -5 13 5 14 13 13 15 -6 -5 -6 -0 -11
5 4 3 5 4 5 4 4 3 4 5 6 7 6 6 6 7 7 3 5 8 11 13 15 15 10 11 7 14 -8 14 36 26 0 13 1 15 13 -4 -4 9 -8 -6
4 3 3 2 3 4 5 6 6 5 6 6 7 6 6 7 8 10 9 5 2 3 6 9 12 14 13 15 15 19 6 -6 15 4 10 17 9 20 15 -26 19 -1 7
5 4 2 1 5 3 4 6 5 5 8 5 7 8 13 15 9 8 8 8 6 8 5 3 5 8 12 15 9 3 -3 -4 9 8 10 15 26 18 7 41 30 32 11
4 4 2 7 6 8 11 9 7 9 8 7 8 9 12 15 19 11 8 7 7 5 4 10 5 6 4 13 13 31 33 -5 57 -3 -9 -26 9 -0 12 -2 -7 -15 6
4 5 6 2 1 4 5 8 9 7 8 9 7 9 12 8 12 20 10 5 6 6 7 13 15 6 7 11 32 6 26 36 -4 -10 15 10 7 -1 21 14 -0 -9 -2
-1 -3 4 9 12 10 7 8 7 7 6 7 8 12 8 13 14 14 14 10 10 8 12 16 9 10 9 7 10 7 -12 -22 0 20 -30 -6 41 -10 14 34 13 9 9
3 0 5 7 13 13 10 10 8 8 8 8 9 9 12 10 13 12 11 13 15 13 15 7 15 9 7 5 8 12 17 4 -17 10 37 -2 -5 2 21 19 -8 -8 -3
-2 -3 -2 8 13 11 9 8 8 10 9 9 10 12 18 15 14 14 12 10 9 13 11 9 -1 9 11 7 4 6 12 23 31 -14 -12 -8 12 9 9 10 11 17 9
Height
3147 3149 3150 3151 3151 3153 3154 3155 3156 3157 3157 3158 3158 3158 3158 3158 3158 3159 3159 3159 3159 3159 3159 3159 3158 3158 3158 3158 3157 3157 3157 3157 3157 3157 3157 3158 3158 3159 3160 3161 3161 3162 3163
3145 3147 3149 3150 3151 3152 3153 3154 3155 3156 3157 3157 3157 3158 3158 3158 3158 3158 3158 3159 3159 3159 3159 3158 3158 3158 3158 3158 3157 3157 3157 3157 3158 3158 3158 3158 3159 3160 3161 3161 3161 3162 3163
3143 3145 3147 3149 3150 3151 3152 3153 3154 3155 3156 3157 3157 3157 3158 3157 3157 3158 3158 3158 3159 3159 3159 3159 3158 3158 3158 3158 3157 3157 3157 3157 3158 3158 3159 3160 3160 3161 3162 3163 3162 3163 3164
3142 3144 3146 3148 3149 3150 3151 3152 3153 3153 3154 3155 3156 3157 3157 3157 3157 3157 3157 3158 3158 3158 3158 3158 3158 3159 3158 3158 3157 3157 3158 3157 3157 3158 3160 3161 3161 3162 3163 3163 3163 3163 3164
3141 3142 3144 3146 3148 3149 3150 3151 3152 3152 3153 3154 3155 3155 3156 3156 3156 3156 3156 3157 3157 3157 3157 3158 3158 3158 3158 3158 3157 3157 3157 3157 3157 3158 3159 3161 3161 3162 3163 3162 3163 3163 3164
3141 3141 3142 3144 3146 3147 3148 3149 3150 3151 3151 3153 3153 3154 3154 3155 3155 3155 3155 3156 3156 3156 3156 3156 3157 3158 3158 3157 3157 3157 3157 3157 3157 3157 3158 3159 3161 3162 3161 3162 3163 3164 3163
3139 3140 3141 3143 3144 3145 3146 3147 3148 3149 3149 3150 3152 3152 3153 3153 3154 3154 3154 3155 3155 3155 3156 3155 3156 3157 3157 3156 3156 3155 3155 3156 3156 3156 3157 3158 3159 3161 3161 3162 3162 3163 3163
3138 3139 3140 3141 3142 3144 3145 3145 3146 3147 3147 3148 3149 3150 3151 3151 3152 3152 3153 3153 3153 3153 3154 3154 3155 3155 3156 3155 3155 3154 3154 3154 3155 3155 3156 3156 3157 3159 3160 3160 3161 3162 3163
3137 3138 3138 3139 3140 3141 3142 3143 3144 3144 3145 3145 3146 3147 3148 3149 3149 3150 3150 3151 3151 3151 3152 3153 3153 3154 3154 3154 3154 3153 3153 3152 3153 3153 3154 3155 3156 3156 3157 3158 3159 3160 3161
3134 3135 3136 3136 3136 3137 3138 3139 3141 3141 3141 3142 3142 3143 3144 3146 3146 3147 3148 3148 3149 3150 3150 3151 3151 3152 3152 3152 3151 3152 3151 3151 3151 3152 3153 3153 3153 3154 3154 3155 3156 3157 3158
3131 3132 3133 3133 3133 3133 3134 3135 3136 3137 3137 3138 3138 3140 3140 3142 3143 3144 3144 3145 3146 3147 3148 3148 3149 3149 3150 3150 3150 3149 3149 3149 3149 3151 3151 3151 3151 3153 3152 3153 3153 3154 3156
3128 3129 3129 3130 3130 3131 3131 3132 3132 3132 3132 3134 3134 3135 3136 3138 3139 3139 3140 3141 3142 3143 3144 3145 3146 3146 3147 3147 3147 3147 3146 3146 3147 3149 3150 3149 3150 3152 3150 3151 3152 3153 3153
3126 3127 3127 3127 3128 3128 3128 3129 3129 3129 3129 3130 3130 3131 3132 3133 3134 3135 3136 3137 3138 3139 3140 3141 3142 3142 3143 3143 3144 3144 3143 3144 3144 3146 3147 3147 3148 3150 3149 3149 3150 3151 3152
3124 3125 3125 3125 3125 3125 3126 3126 3126 3125 3126 3126 3127 3127 3127 3128 3128 3130 3131 3132 3133 3133 3134 3135 3136 3137 3138 3139 3139 3139 3140 3141 3142 3143 3144 3145 3146 3147 3147 3148 3149 3149 3150
3123 3124 3124 3124 3123 3123 3123 3123 3122 3122 3122 3121 3121 3122 3122 3122 3123 3124 3125 3127 3127 3127 3129 3129 3130 3131 3132 3133 3134 3136 3135 3137 3138 3140 3141 3142 3143 3145 3145 3145 3147 3147 3148
3121 3122 3122 3122 3122 3121 3121 3120 3120 3119 3118 3118 3117 3116 3116 3117 3118 3118 3119 3119 3119 3120 3122 3123 3125 3125 3124 3126 3128 3129 3130 3133 3134 3135 3137 3139 3140 3141 3141 3144 3144 3144 3145
3119 3119 3119 3120 3119 3118 3117 3117 3116 3116 3115 3114 3113 3112 3111 3111 3111 3112 3112 3112 3112 3113 3115 3116 3117 3116 3120 3114 3120 3122 3122 3126 3128 3130 3131 3134 3135 3137 3137 3138 3139 3141 3142
3116 3116 3116 3116 3116 3115 3115 3114 3113 3112 3111 3110 3109 3108 3106 3106 3106 3106 3106 3106 3105 3106 3107 3108 3108 3109 3111 3114 3114 3117 3116 3120 3124 3125 3126 3128 3130 3132 3134 3135 3135 3137 3138
3113 3114 3114 3113 3112 3111 3110 3109 3108 3107 3106 3105 3104 3103 3101 3099 3099 3099 3099 3099 3099 3099 3100 3100 3101 3100 3101 3105 3108 3112 3110 3113 3116 3120 3122 3122 3125 3127 3130 3131 3131 3132 3134
3110 3110 3109 3108 3108 3107 3105 3104 3103 3102 3100 3099 3097 3096 3094 3092 3091 3092 3092 3092 3091 3092 3093 3093 3094 3094 3094 3096 3099 3102 3105 3107 3109 3112 3116 3116 3118 3121 3122 3125 3125 3128 3129
3106 3106 3105 3104 3102 3100 3099 3097 3096 3095 3093 3092 3089 3087 3085 3083 3082 3081 3083 3083 3085 3085 3085 3085 3085 3086 3087 3089 3093 3094 3097 3101 3104 3106 3107 3109 3111 3116 3117 3118 3121 3122 3123
3103 3102 3101 3100 3098 3095 3092 3090 3087 3085 3084 3083 3081 3078 3076 3074 3074 3072 3073 3075 3075 3077 3077 3078 3078 3079 3080 3083 3085 3086 3089 3095 3094 3097 3100 3102 3105 3109 3109 3113 3112 3116 3116
3099 3097 3096 3093 3091 3088 3084 3081 3079 3076 3074 3073 3071 3069 3067 3065 3065 3063 3063 3064 3065 3067 3067 3069 3070 3071 3073 3075 3078 3082 3080 3082 3087 3089 3092 3096 3098 3100 3104 3105 3106 3107 3109
3094 3093 3090 3088 3084 3081 3077 3074 3070 3066 3064 3063 3061 3061 3059 3056 3054 3054 3054 3054 3056 3057 3057 3060 3061 3063 3065 3068 3071 3074 3074 3077 3079 3084 3086 3089 3090 3093 3095 3096 3100 3102 3104
3090 3088 3085 3082 3078 3073 3069 3066 3062 3058 3055 3051 3050 3049 3049 3047 3044 3044 3045 3045 3047 3047 3048 3051 3053 3054 3056 3060 3063 3067 3067 3068 3070 3075 3077 3081 3086 3087 3088 3090 3092 3094 3097
3085 3082 3078 3075 3071 3066 3062 3058 3054 3050 3046 3042 3039 3037 3036 3035 3035 3034 3035 3036 3037 3039 3040 3042 3045 3046 3048 3051 3055 3057 3059 3062 3064 3068 3071 3075 3078 3079 3081 3083 3085 3087 3089